Tracking 28790 objects as of 19-Apr-2024
HD Live streaming from Space Station
objects crossing your sky now

COSMOS 797

Track COSMOS 797 now!
10-day predictions
COSMOS 797 is classified as:


NORAD ID: 8613
Int'l Code: 1976-008G
Perigee: 1,486.1 km
Apogee: 1,535.7 km
Inclination: 74.1 °
Period: 116.1 minutes
Semi major axis: 7881 km
RCS: 0.7129 m2 (medium)
Launch date: January 28, 1976
Source: Commonwealth of Independent States (former USSR) (CIS)
Launch site: PLESETSK MISSILE AND SPACE COMPLEX (PKMTR)
Your satellite tracking list
Your tracking list is empty




NASA's NSSDC Master Catalog

Two Line Element Set (TLE):
1 08613U 76008G   24109.86297911 -.00000007  00000-0  61496-4 0  9996
2 08613  74.0590  14.0138 0031477  95.0348 330.7165 12.40671307184114
Source of the keplerian elements: AFSPC